Regional Weather Roundup
Issued by NWS Goodland, KS

Home | Current Version | Previous Version | Text Only | Print | Product List | Glossary Off
Versions: 1 2 3 4 5 6 7 8 9 10 11 12 13 14 15 16 17 18 19 20 21 22 23 24 25 26 27 28 29 30 31 32 33 34 35 36 37 38 39 40 41 42 43 44 45 46 47 48 49 50

000
ASUS43 KGLD 251059
RWRGLD

GOODLAND FORECAST AREA HOURLY WEATHER ROUNDUP
NATIONAL WEATHER SERVICE GOODLAND KS
500 AM MDT MON MAY 25 2015

...OFFICIAL OBSERVATIONS...

CITY           SKY/WX    TMP DP  RH WIND       PRES   REMARKS
GOODLAND KS    CLEAR     47  45  93 W10       29.82R
HILL CITY KS   CLOUDY    51  49  92 CALM      29.79S
IMPERIAL NEB   CLOUDY    51  49  92 NW3       29.79S
MCCOOK NEB     CLOUDY    52  51  97 CALM      29.77F
AKRON CO       MOCLDY    43  43 100 W12       29.83S
BURLINGTON CO  CLEAR     46  42  86 W8        29.82S
LIMON CO       PTCLDY    42  41  96 NW6       29.87S
$$

...UNOFFICIAL OBSERVATIONS...

CITY           SKY/WX    TMP DP  RH WIND       PRES   REMARKS
GOVE KS          N/A     50  32  50 MISG        N/A
LENORA KS        N/A     51  32  48 MISG        N/A
SHARON SPRINGS   N/A     46  45  95 MISG        N/A
KIT CARSON CO    N/A     44  42  91 MISG        N/A
$$


USA.gov is the U.S. government's official web portal to all federal, state and local government web resources and services.